Regional Weather Roundup
Issued by NWS Upton, NY

Current Version | Previous Version | Text Only | Print | Product List | Glossary Off
Versions: 1 2 3 4 5 6 7 8 9 10 11 12 13 14 15 16 17 18 19 20 21 22 23 24 25 26 27 28 29 30 31 32 33 34 35 36 37 38 39 40 41 42 43 44 45 46 47 48 49 50
288 ASUS41 KOKX 192306 RWROKX Regional Weather Roundup National Weather Service New York NY 700 PM EDT SAT MAY 19 2018 Note: "FAIR" indicates few or no clouds below 12,000 feet with no significant weather and/or obstructions to visibility. NYZ071-072-176-178-NJZ106-104-200000- New York City Metro Area CITY SKY/WX TMP DP RH WIND PRES REMARKS Central Park CLOUDY 56 55 97 CALM 30.14F FOG Bronx Bot Gard N/A 54 52 94 E2 30.14F Bronx Lehman C N/A 54 52 94 E7 N/A LaGuardia Arpt LGT RAIN 55 53 93 NE9 30.11F VSB 1/4 Queens College N/A 57 55 94 SE5 N/A Kennedy Intl LGT RAIN 56 56 100 E6 30.12F VSB 1/4 Breezy Point N/A 54 N/A N/A E7 N/A Brooklyn Coll N/A 57 55 94 E6 N/A Staten Island N/A 55 55 100 SE2 N/A Newark/Liberty LGT RAIN 56 56 100 E5 30.11F VSB 1/2 Teterboro DRZL/FOG 56 55 97 E5 30.10F VSB 3/4 $$ NYZ177-179-078>081-200000- Long Island New York CITY SKY/WX TMP DP RH WIND PRES REMARKS Jones Beach N/A 54 N/A N/A E6 N/A Wantagh N/A 55 55 100 E3 N/A Hempstead N/A 55 55 100 E3 30.14F Matinecock Pt N/A 52 N/A N/A E14 N/A Farmingdale FOG 56 56 100 E5 30.12F VSB 3/4 MacArthur/ISP LGT RAIN 56 56 100 SE5 30.12F VSB 1/4 Stony Brook N/A 55 55 100 SE2 N/A Shirley FOG 55 55 100 CALM 30.13F VSB 1/2 Mt Sinai Harb N/A N/A N/A N/A E5 N/A Westhampton FOG 54 53 97 VRB3 30.15F VSB 1/2 East Hampton FOG 52 51 99 CALM 30.15R VSB 1/4 Southold N/A 55 55 100 SE2 N/A Montauk N/A 53 53 100 SE7 30.15F $$ NYZ052-065-067-200000- Hudson Valley CITY SKY/WX TMP DP RH WIND PRES REMARKS White Plains DRZL/FOG 53 52 96 E8 30.11F VSB 1/2 Larchmont Harb N/A 52 N/A N/A NE16 N/A Croton On Huds N/A 55 N/A N/A MISG N/A Somers N/A 52 52 100 E6 N/A Brewster N/A 54 52 94 SE2 N/A Newburgh DRIZZLE 55 55 100 SE7 30.12F FOG Montgomery LGT RAIN 54 53 97 N5 30.10F FOG Otisville N/A 52 52 100 N2 N/A Warwick N/A 55 55 100 SE2 N/A Suffern N/A 54 54 100 W1 N/A Poughkeepsie CLOUDY 56 53 90 CALM 30.11F Albany LGT RAIN 55 51 86 S8 30.10F FOG $$ NJZ001-105-106-008-010-013-015-019>022-104-200000- New Jersey CITY SKY/WX TMP DP RH WIND PRES REMARKS Newark/Liberty LGT RAIN 56 56 100 E5 30.11F VSB 1/2 Teterboro DRZL/FOG 56 55 97 E5 30.10F VSB 3/4 Caldwell CLOUDY 55 55 100 CALM 30.12F FOG Somerville CLOUDY 56 56 100 CALM 30.09F FOG Linden DRIZZLE 57 55 94 CALM 30.12F Perth Amboy N/A 54 N/A N/A E5 N/A Sussex LGT RAIN 56 55 97 CALM 30.11F FOG Andover N/A 56 55 97 CALM 30.11F Trenton CLOUDY 58 57 97 NE5 30.09F FOG Millville FAIR 70 69 97 CALM 30.09F Atlantic City CLOUDY 67 67 100 S7 30.11F FOG Wrightstown LGT RAIN 63 63 100 NE3 30.07 FOG Toms River LGT RAIN 65 64 97 CALM 30.11F Belmar CLOUDY 58 57 97 E3 30.12F FOG $$ PAZ047>061-062-071-200000- Eastern Pennsylvania CITY SKY/WX TMP DP RH WIND PRES REMARKS Philadelphia CLOUDY 63 62 97 E5 30.08 Allentown CLOUDY 58 55 90 E5 30.10F FOG Scranton CLOUDY 60 57 89 CALM 30.06F $$ CTZ002-004>006-009-010-012-RIZ004-006-007-MAZ004-011-015-200000- Southern New England In CT CITY SKY/WX TMP DP RH WIND PRES REMARKS Bradley Intl DRIZZLE 57 56 96 SE3 30.14F FOG Hartford CLOUDY 58 57 97 SE3 30.14F FOG Danbury LGT RAIN 53 53 100 CALM 30.14F FOG Wtrbury/Oxford LGT RAIN 52 52 100 SE7 30.14F VSB 1/4 Norwalk Harbor N/A 50 N/A N/A NE16 N/A Bridgeport LGT RAIN 52 51 97 E12 30.14F FOG Meriden CLOUDY 55 54 96 S5 30.14F FOG New Haven CLOUDY 53 52 96 E7 30.14F FOG Chester LGT RAIN 54 54 100 VRB6 30.15F Groton HVY RAIN 53 52 96 E5 30.16S VSB 1 Willimantic CLOUDY 57 55 93 VRB6 30.15F In RI CITY SKY/WX TMP DP RH WIND PRES REMARKS Providence RAIN 56 55 97 S5 30.17F FOG Block Island FOG 52 52 100 SE12 30.15F VSB 1/2 Westerly LGT RAIN 54 54 100 E10 30.15F FOG In MA CITY SKY/WX TMP DP RH WIND PRES REMARKS Boston LGT RAIN 50 50 100 E12 30.16 FOG Worcester FOG 50 50 100 SE5 30.15F VSB 1/4 Westfield LGT RAIN 54 54 100 N5 30.14 FOG Provincetown LGT RAIN 52 52 100 SE8 30.18F FOG Nantucket FOG 51 51 100 SE12 30.19F VSB 1/4 $$ ANZ330-335-338-340-345-350-353-355-200000- Coastal Marine Observations STATION/POSITION TIME SKY/WX TEMP WIND PRES VSBY WAVE AIR SEA DIR/SP/G HT/PER (UTC) (F) (DEG/KT/KT) (MB) (MI) (FT/S) NY Harb Entrance 2250 54 52 90/ 4/ 6 1019.7 4/ 6 20 S Fire Island 2250 54 51 200/ 6/ 6 1020.2 5/ 6 23 SSW Montauk P 2250 53 51 160/ 12/ 14 1020.7 4/ 5 15 E Barnegat Li 2230 53 N/A 5/ 6 Hudson Canyon 2250 58 52 180/ 12/ 12 1020.7 4/ 7 Kings Point 2248 54 54 100/ 3/ 4 1020.8 Execution Rocks NOT AVBL Western LI Sound NOT AVBL Central LI Sound NOT AVBL Robbins Reef 2248 57 100/ 6/ 8 1020.3 $$ >>>>>>>>>>>>>>>>>>>>>>>>>>>> KEY <<<<<<<<<<<<<<<<<<<<<<<<<<< > < > SKY/WX - Sky Condition/Present Weather < > TMP - Temperature in Fahrenheit < > DP - Dew Point in Fahrenheit < > RH - Relative Humidity in Percent < > WIND - Direction (from) and Speed in MPH < > PRES - Mean Sea Level Pressure (inches of Hg) < > WCI - Wind Chill Index < > VSB - Visibility in Miles < > HX - Heat Index < > TC - Temperature in Celsius < > VRB - Varibale Wind Direction < > < >>>>>>>>>>>>>>>>>>>>>>>>>>>> KEY <<<<<<<<<<<<<<<<<<<<<<<<<<<

USA.gov is the U.S. government's official web portal to all federal, state and local government web resources and services.